GW1008 Weather Reports


Display with metric or nautical units.
time (UTC)temp
F
wind
direction
speed
MPH
gust
MPH
rain 1hr
in
rain 24hr
in
rain mn
in
humidity
%
barometer
mb
20260905022521 53 286 7.0 17.0 0.00 0.00 0.00 74 1008.7
20260905022016 53 289 9.0 17.0 0.00 0.00 0.00 74 1008.7
20260905021536 53 285 6.0 17.0 0.00 0.00 0.00 74 1008.6
20260905021016 53 321 6.0 18.0 0.00 0.00 0.00 74 1008.6
20260905020515 53 279 6.0 18.0 0.00 0.00 0.00 73 1008.6
20260905020032 53 294 8.0 18.0 0.00 0.00 0.00 73 1008.5
20260905015517 53 261 7.0 17.0 0.00 0.00 0.00 73 1008.5
20260905015018 53 317 7.0 17.0 0.00 0.00 0.00 73 1008.3
20260905014536 53 275 7.0 21.0 0.00 0.00 0.00 73 1008.2
20260905014016 53 0 7.0 21.0 0.00 0.00 0.00 73 1008.1
20260905013519 53 277 7.0 19.0 0.00 0.00 0.00 73 1008.0
20260905013034 53 289 8.0 19.0 0.00 0.00 0.00 73 1007.9
20260905012516 53 290 7.0 19.0 0.00 0.00 0.00 73 1008.0
20260905012017 53 302 9.0 18.0 0.00 0.00 0.00 73 1007.8
20260905011534 53 279 8.0 18.0 0.00 0.00 0.00 73 1007.8
20260905011016 53 275 9.0 20.0 0.00 0.00 0.00 73 1007.6
20260905010518 53 297 8.0 20.0 0.00 0.00 0.00 73 1007.7
20260905010032 53 297 9.0 20.0 0.00 0.00 0.00 72 1007.5
20260905005518 53 221 8.0 21.0 0.00 0.00 0.00 72 1007.4
20260905005016 53 247 11.0 21.0 0.00 0.00 0.00 72 1007.3
20260905004534 53 270 9.0 18.0 0.00 0.00 0.00 72 1007.3
20260905004015 53 305 8.0 18.0 0.00 0.00 0.00 72 1007.2
20260905003519 53 0 4.0 16.0 0.00 0.00 0.00 72 1007.1
20260905003031 53 291 9.0 16.0 0.00 0.00 0.00 72 1007.1
20260905002515 53 291 6.0 18.0 0.00 0.00 0.00 72 1007.0
20260905002016 53 307 6.0 18.0 0.00 0.00 0.00 72 1007.1
20260905001536 53 304 7.0 17.0 0.00 0.00 0.00 72 1007.0
20260905001016 53 305 8.0 16.0 0.00 0.00 0.00 73 1006.8
20260905000518 53 295 7.0 16.0 0.00 0.00 0.00 73 1006.7
20260905000036 53 291 6.0 16.0 0.00 0.00 0.00 72 1006.6
20260904235520 53 279 7.0 16.0 0.00 0.00 0.00 72 1006.6
20260904235014 53 300 8.0 17.0 0.00 0.00 0.00 72 1006.4
20260904234544 53 287 8.0 18.0 0.00 0.00 0.00 72 1006.5
20260904234023 53 299 9.0 18.0 0.00 0.00 0.00 72 1006.4
20260904233518 53 276 8.0 20.0 0.00 0.00 0.00 72 1006.3
20260904233033 54 306 7.0 20.0 0.00 0.00 0.00 72 1006.2
20260904232516 54 283 10.0 20.0 0.00 0.00 0.00 71 1006.3
20260904232017 54 249 8.0 20.0 0.00 0.00 0.00 72 1006.2
20260904231531 54 277 7.0 20.0 0.00 0.00 0.00 72 1006.2
20260904231015 54 292 10.0 19.0 0.00 0.00 0.00 72 1006.2
20260904230516 54 341 9.0 19.0 0.00 0.00 0.00 72 1006.2
20260904230033 54 282 9.0 15.0 0.00 0.00 0.00 73 1006.2
20260904225522 54 282 4.0 17.0 0.00 0.00 0.00 73 1006.5
20260904225017 54 258 4.0 17.0 0.00 0.00 0.00 73 1006.4
20260904224539 54 300 5.0 14.0 0.00 0.00 0.00 73 1006.5
20260904224014 54 303 4.0 14.0 0.00 0.00 0.00 73 1006.4
20260904223516 54 316 4.0 14.0 0.00 0.00 0.00 73 1006.3
20260904223033 54 0 4.0 13.0 0.00 0.00 0.00 73 1006.2
20260904222519 54 287 1.0 13.0 0.00 0.00 0.00 73 1006.0
20260904222016 54 0 2.0 13.0 0.00 0.00 0.00 73 1006.1
20260904221532 54 298 4.0 15.0 0.00 0.00 0.00 73 1005.9
20260904221018 54 293 3.0 15.0 0.00 0.00 0.00 73 1005.9
20260904220518 54 284 5.0 16.0 0.00 0.00 0.00 73 1005.5
20260904220054 55 302 5.0 17.0 0.00 0.00 0.00 73 1005.4
20260904215518 55 269 7.0 17.0 0.00 0.00 0.00 73 1005.4
20260904215017 55 275 5.0 16.0 0.00 0.00 0.00 73 1005.2
20260904214537 55 249 4.0 16.0 0.00 0.00 0.00 73 1005.1
20260904214018 55 306 4.0 15.0 0.00 0.00 0.00 73 1005.2
20260904213518 55 327 4.0 16.0 0.00 0.00 0.00 72 1005.1
20260904213034 55 304 3.0 17.0 0.00 0.00 0.00 72 1005.0
20260904212519 55 274 6.0 17.0 0.00 0.00 0.00 72 1005.0
20260904212018 55 0 8.0 17.0 0.00 0.00 0.00 72 1005.0
20260904211537 55 291 5.0 13.0 0.00 0.00 0.00 72 1005.0
20260904211019 55 0 3.0 21.0 0.00 0.00 0.00 71 1005.2
20260904210516 55 284 4.0 21.0 0.00 0.00 0.00 71 1005.0
20260904210044 55 286 7.0 15.0 0.00 0.00 0.00 71 1005.2
20260904205519 55 295 3.0 13.0 0.00 0.00 0.00 71 1005.3
20260904205018 55 0 2.0 13.0 0.00 0.00 0.00 71 1005.4
20260904204535 55 280 0.0 11.0 0.00 0.00 0.00 71 1005.5
20260904204017 55 293 1.0 9.0 0.00 0.00 0.00 71 1005.5
20260904203519 55 0 0.0 7.0 0.00 0.00 0.00 71 1005.5
20260904203044 54 0 0.0 4.0 0.00 0.00 0.00 71 1005.5
20260904202516 54 0 0.0 4.0 0.00 0.00 0.00 71 1005.3
20260904202019 54 0 0.0 6.0 0.00 0.00 0.00 71 1005.4
20260904201536 54 0 0.0 6.0 0.00 0.00 0.00 71 1005.3
20260904201017 54 0 0.0 3.0 0.00 0.00 0.00 71 1005.3
20260904200517 54 0 0.0 7.0 0.00 0.00 0.00 71 1005.2
20260904200034 54 0 0.0 7.0 0.00 0.00 0.00 71 1005.2
20260904195516 54 0 0.0 9.0 0.00 0.00 0.00 71 1005.1
20260904195019 54 0 0.0 9.0 0.00 0.00 0.00 70 1005.1
20260904194536 54 0 0.0 10.0 0.00 0.00 0.00 70 1004.9
20260904194018 54 0 1.0 11.0 0.00 0.00 0.00 69 1004.8
20260904193517 55 0 0.0 11.0 0.00 0.00 0.00 69 1004.6
20260904193034 55 0 3.0 12.0 0.00 0.00 0.00 68 1004.7
20260904192516 55 0 0.0 13.0 0.00 0.00 0.00 68 1004.6
20260904192015 55 240 2.0 13.0 0.00 0.00 0.00 68 1004.4
20260904191543 55 0 0.0 8.0 0.00 0.00 0.00 68 1004.4
20260904191015 55 0 0.0 11.0 0.00 0.00 0.00 67 1004.4
20260904190515 56 276 0.0 11.0 0.00 0.00 0.00 67 1004.2
20260904190040 56 0 1.0 15.0 0.00 0.00 0.00 66 1004.2
20260904185516 56 0 3.0 15.0 0.00 0.00 0.00 67 1004.2
20260904185018 56 310 1.0 13.0 0.00 0.00 0.00 66 1003.9
20260904184541 56 288 1.0 11.0 0.00 0.00 0.00 66 1003.8
20260904184016 56 0 0.0 12.0 0.00 0.00 0.00 66 1003.7
20260904183516 57 0 0.0 12.0 0.00 0.00 0.00 66 1003.8
20260904183034 57 233 0.0 9.0 0.00 0.00 0.00 65 1003.7
20260904182515 57 283 0.0 11.0 0.00 0.00 0.00 65 1003.6
20260904182027 57 0 0.0 11.0 0.00 0.00 0.00 64 1003.4
20260904181536 58 299 2.0 12.0 0.00 0.00 0.00 63 1003.3
20260904181018 58 0 2.0 12.0 0.00 0.00 0.00 63 1003.3
20260904180518 58 281 4.0 12.0 0.00 0.00 0.00 62 1003.1
20260904180033 59 0 2.0 17.0 0.00 0.00 0.00 62 1003.1
20260904175517 59 0 3.0 17.0 0.00 0.00 0.00 62 1002.9
20260904175015 59 272 1.0 18.0 0.00 0.00 0.00 62 1002.8
20260904174537 59 272 5.0 18.0 0.00 0.00 0.00 62 1002.8
20260904174018 60 281 4.0 19.0 0.00 0.00 0.00 62 1002.6
20260904173516 60 321 5.0 19.0 0.00 0.00 0.00 61 1002.6
20260904173041 60 288 7.0 19.0 0.00 0.00 0.00 61 1002.6
20260904172516 60 295 4.0 19.0 0.00 0.00 0.00 61 1002.6
20260904172017 60 274 5.0 15.0 0.00 0.00 0.00 62 1002.6
20260904171531 60 0 8.0 14.0 0.00 0.00 0.00 62 1002.4
20260904171015 60 245 3.0 16.0 0.00 0.00 0.00 64 1002.4
20260904170519 60 287 4.0 16.0 0.00 0.00 0.00 63 1002.3
20260904170043 60 292 9.0 18.0 0.00 0.00 0.00 63 1002.2
20260904165518 60 293 6.0 21.0 0.00 0.00 0.00 63 1002.2
20260904165015 60 298 6.0 21.0 0.00 0.00 0.00 63 1002.1
20260904164533 60 292 9.0 21.0 0.00 0.00 0.00 62 1001.9
20260904164015 60 286 7.0 17.0 0.00 0.00 0.00 62 1002.0
20260904163516 60 263 4.0 17.0 0.00 0.00 0.00 63 1001.9
20260904163035 61 291 6.0 20.0 0.00 0.00 0.00 61 1001.9
20260904162520 61 303 5.0 28.0 0.00 0.00 0.00 61 1001.7
20260904162020 61 339 7.0 28.0 0.00 0.00 0.00 61 1001.7
20260904161534 61 300 6.0 19.0 0.00 0.00 0.00 61 1001.6
20260904161016 61 272 4.0 20.0 0.00 0.00 0.00 61 1001.6
20260904160521 61 0 4.0 20.0 0.00 0.00 0.00 59 1001.7
20260904160033 62 13 8.0 20.0 0.00 0.00 0.00 59 1001.4
20260904155520 62 284 2.0 16.0 0.00 0.00 0.00 59 1001.6
20260904155017 62 319 6.0 19.0 0.00 0.00 0.00 59 1001.5
20260904154534 62 293 4.0 19.0 0.00 0.00 0.00 60 1001.4
20260904154020 62 267 7.0 19.0 0.00 0.00 0.00 59 1001.3
20260904153517 62 284 8.0 19.0 0.00 0.00 0.00 59 1001.2
20260904153043 62 273 4.0 16.0 0.00 0.00 0.00 59 1001.1
20260904152518 62 300 7.0 22.0 0.00 0.00 0.00 59 1001.0
20260904152018 62 276 7.0 22.0 0.00 0.00 0.00 59 1000.9
20260904151537 62 315 7.0 17.0 0.00 0.00 0.00 59 1001.0
20260904151016 62 294 4.0 19.0 0.00 0.00 0.00 59 1000.9
20260904150521 62 291 6.0 19.0 0.00 0.00 0.00 60 1000.9
20260904150036 62 301 11.0 26.0 0.00 0.00 0.00 59 1001.0
20260904145516 63 303 10.0 26.0 0.00 0.00 0.00 58 1001.0
20260904145015 63 323 7.0 25.0 0.00 0.00 0.00 58 1000.8
20260904144542 63 288 7.0 23.0 0.00 0.00 0.00 59 1000.7
20260904144022 63 273 6.0 22.0 0.00 0.00 0.00 58 1000.5
20260904143517 63 0 8.0 18.0 0.00 0.00 0.00 57 1000.6
20260904143036 63 319 2.0 21.0 0.00 0.00 0.00 59 1000.5
20260904142519 63 286 9.0 21.0 0.00 0.00 0.00 57 1000.3
20260904142015 63 254 5.0 19.0 0.00 0.00 0.00 58 1000.3
20260904141537 63 311 7.0 19.0 0.00 0.00 0.00 58 1000.2
20260904141018 64 0 4.0 20.0 0.00 0.00 0.00 57 1000.1
20260904140515 64 315 7.0 20.0 0.00 0.00 0.00 58 1000.0
20260904140047 64 259 6.0 18.0 0.00 0.00 0.00 58 1000.0
20260904135516 64 0 6.0 16.0 0.00 0.00 0.00 59 1000.1
20260904135016 63 263 5.0 21.0 0.00 0.00 0.00 61 1000.1
20260904134536 63 296 7.0 21.0 0.00 0.00 0.00 60 1000.4
20260904134017 64 291 4.0 18.0 0.00 0.00 0.00 58 1000.2
20260904133515 64 280 6.0 16.0 0.00 0.00 0.00 57 999.8
20260904133035 63 267 7.0 16.0 0.00 0.00 0.00 59 999.9
20260904132517 62 0 4.0 24.0 0.00 0.00 0.00 61 999.8
20260904132021 62 281 6.0 24.0 0.00 0.00 0.00 60 999.8
20260904131532 62 296 9.0 24.0 0.00 0.00 0.00 59 1000.0
20260904131016 62 268 5.0 20.0 0.00 0.00 0.00 59 999.8
20260904130522 63 277 7.0 19.0 0.00 0.00 0.00 57 999.5
20260904130036 64 302 5.0 22.0 0.00 0.00 0.00 57 999.4
20260904125515 65 263 5.0 22.0 0.00 0.00 0.00 57 999.2
20260904125016 65 268 6.0 22.0 0.00 0.00 0.00 56 999.1
20260904124534 65 307 4.0 19.0 0.00 0.00 0.00 59 999.3
20260904124018 65 0 7.0 20.0 0.00 0.00 0.00 57 999.3
20260904123518 64 299 6.0 20.0 0.00 0.00 0.00 56 999.2
20260904123034 65 263 5.0 23.0 0.00 0.00 0.00 57 999.0
20260904122520 64 277 9.0 23.0 0.00 0.00 0.00 57 999.0
20260904122018 64 294 9.0 23.0 0.00 0.00 0.00 56 998.8
20260904121534 64 296 10.0 29.0 0.00 0.00 0.00 56 998.8
20260904121016 64 291 7.0 29.0 0.00 0.00 0.00 56 998.7
20260904120516 64 295 9.0 24.0 0.00 0.00 0.00 55 998.8
20260904120031 65 306 9.0 24.0 0.00 0.00 0.00 55 998.7
20260904115517 65 303 4.0 19.0 0.00 0.00 0.00 57 998.6
20260904115016 65 273 6.0 19.0 0.00 0.00 0.00 56 998.7
20260904114537 65 0 4.0 15.0 0.00 0.00 0.00 57 998.7
20260904114018 64 0 2.0 16.0 0.00 0.00 0.00 59 998.6
20260904113517 64 288 3.0 21.0 0.00 0.00 0.00 59 998.7
20260904113037 64 292 7.0 21.0 0.00 0.00 0.00 58 998.8
20260904112517 64 286 5.0 20.0 0.00 0.00 0.00 58 998.8
20260904112016 64 306 4.0 20.0 0.00 0.00 0.00 58 998.7
20260904111532 64 273 8.0 22.0 0.00 0.00 0.00 57 998.5
20260904111017 64 299 3.0 22.0 0.00 0.00 0.00 60 998.6
20260904110517 63 337 7.0 22.0 0.00 0.00 0.00 59 998.5
20260904110035 63 292 4.0 21.0 0.00 0.00 0.00 59 998.3
20260904105519 62 283 7.0 21.0 0.00 0.00 0.00 59 998.3
20260904105015 62 275 3.0 15.0 0.00 0.00 0.00 65 998.3
20260904104533 62 296 6.0 15.0 0.00 0.00 0.00 63 998.3
20260904104016 62 0 3.0 13.0 0.00 0.00 0.00 62 998.0
20260904103519 63 287 5.0 13.0 0.00 0.00 0.00 62 997.9
20260904103034 64 0 1.0 10.0 0.00 0.00 0.00 66 997.7
20260904102518 64 267 0.0 13.0 0.00 0.00 0.00 66 997.7
20260904102017 64 0 2.0 18.0 0.00 0.00 0.00 67 997.6
20260904101534 64 250 5.0 18.0 0.00 0.00 0.00 67 997.4
20260904101015 63 0 3.0 15.0 0.00 0.00 0.00 66 997.5
20260904100515 64 229 3.0 16.0 0.00 0.00 0.00 66 997.4
20260904100032 64 311 3.0 16.0 0.00 0.00 0.00 65 997.3
20260904095519 64 282 2.0 15.0 0.00 0.00 0.00 65 997.3
20260904095015 64 0 2.0 13.0 0.00 0.00 0.00 67 997.3
20260904094541 63 257 1.0 13.0 0.00 0.00 0.00 69 997.2
20260904094019 62 0 3.0 14.0 0.00 0.00 0.00 68 997.4
20260904093516 61 245 3.0 14.0 0.00 0.00 0.00 70 997.3
20260904093040 61 247 1.0 13.0 0.00 0.00 0.00 71 997.3
20260904092517 60 0 1.0 14.0 0.00 0.00 0.00 70 997.4
20260904092017 61 0 3.0 14.0 0.00 0.00 0.00 69 997.5
20260904091536 60 0 2.0 12.0 0.00 0.00 0.00 71 997.5
20260904091019 60 0 3.0 16.0 0.00 0.00 0.00 72 997.5
20260904090518 60 0 2.0 16.0 0.00 0.00 0.00 72 997.5
20260904090033 59 0 2.0 16.0 0.00 0.00 0.00 72 997.4
20260904085518 58 237 1.0 14.0 0.00 0.00 0.00 74 997.4
20260904085016 58 278 4.0 16.0 0.00 0.00 0.00 73 997.5
20260904084536 58 256 5.0 16.0 0.00 0.00 0.00 73 997.4
20260904084018 58 0 3.0 12.0 0.00 0.00 0.00 73 997.6
20260904083517 58 263 2.0 12.0 0.00 0.00 0.00 76 997.6
20260904083035 57 0 1.0 12.0 0.00 0.00 0.00 76 997.7
20260904082515 57 0 2.0 19.0 0.00 0.00 0.00 76 997.8
20260904082018 57 236 3.0 19.0 0.00 0.00 0.00 76 997.8
20260904081532 57 0 3.0 13.0 0.00 0.00 0.00 76 997.9
20260904081019 57 263 2.0 11.0 0.00 0.00 0.00 76 998.0
20260904080519 57 234 1.0 12.0 0.00 0.00 0.00 76 997.9
20260904080034 57 272 2.0 13.0 0.00 0.00 0.00 75 998.0
20260904075520 57 0 3.0 13.0 0.00 0.01 0.00 75 997.9
20260904075015 58 0 2.0 10.0 0.00 0.01 0.00 75 997.9
20260904074533 57 246 2.0 10.0 0.00 0.01 0.00 76 997.9
20260904074019 57 0 1.0 10.0 0.00 0.01 0.00 76 998.1
20260904073521 57 0 1.0 10.0 0.00 0.01 0.00 74 998.1
20260904073032 56 0 0.0 8.0 0.00 0.01 0.00 75 998.1
20260904072515 55 0 1.0 8.0 0.00 0.01 0.00 76 998.1
20260904072014 55 0 0.0 3.0 0.00 0.01 0.00 78 998.1
20260904071536 54 0 0.0 0.0 0.00 0.01 0.00 79 998.2
20260904071018 53 0 0.0 7.0 0.00 0.01 0.00 79 998.3
20260904070519 53 0 0.0 7.0 0.00 0.01 0.00 79 998.3
20260904070033 52 0 0.0 1.0 0.00 0.01 0.00 80 998.4
20260904065523 52 0 0.0 0.0 0.00 0.01 0.00 80 998.4
20260904065018 52 0 0.0 0.0 0.00 0.01 0.00 79 998.5
20260904064539 52 0 0.0 3.0 0.00 0.01 0.00 80 998.5
20260904064015 52 0 0.0 3.0 0.00 0.01 0.00 79 998.5
20260904063518 52 0 0.0 0.0 0.00 0.01 0.00 79 998.5
20260904063038 52 0 0.0 2.0 0.00 0.01 0.00 79 998.6
20260904062522 52 0 0.0 2.0 0.00 0.01 0.00 80 998.6
20260904062015 51 0 0.0 0.0 0.00 0.01 0.00 81 998.6
20260904061539 51 0 0.0 6.0 0.00 0.01 0.00 83 998.8
20260904061021 50 0 0.0 6.0 0.00 0.01 0.00 85 998.9
20260904060518 50 0 0.0 6.0 0.00 0.01 0.00 85 998.9
20260904060057 49 0 0.0 0.0 0.00 0.01 0.00 86 998.9
20260904055518 49 0 0.0 0.0 0.00 0.01 0.00 85 998.9
20260904055016 48 0 0.0 0.0 0.00 0.01 0.00 85 999.0
20260904054541 48 0 0.0 0.0 0.00 0.01 0.00 84 999.0
20260904054021 48 0 0.0 0.0 0.00 0.01 0.00 84 999.0
20260904053517 48 0 0.0 0.0 0.00 0.01 0.00 83 999.0
20260904053035 48 0 0.0 0.0 0.00 0.01 0.00 83 999.1
20260904052519 48 0 0.0 0.0 0.00 0.01 0.00 83 999.0
20260904052016 49 0 0.0 0.0 0.00 0.01 0.00 83 999.0
20260904051533 49 0 0.0 0.0 0.00 0.01 0.00 83 999.1
20260904051016 49 0 0.0 4.0 0.00 0.01 0.00 83 999.2
20260904050517 49 0 0.0 5.0 0.00 0.01 0.00 84 999.1
20260904050043 49 0 0.0 5.0 0.00 0.01 0.00 85 999.1
20260904045518 48 0 0.0 5.0 0.00 0.01 0.00 85 999.2
20260904045019 48 0 0.0 0.0 0.00 0.01 0.00 85 999.1
20260904044532 48 0 0.0 0.0 0.00 0.01 0.00 85 999.3
20260904044016 48 0 0.0 0.0 0.00 0.01 0.00 85 999.3
20260904043519 47 0 0.0 3.0 0.00 0.01 0.00 85 999.4
20260904043031 47 0 0.0 3.0 0.00 0.01 0.00 84 999.5
20260904042515 47 0 0.0 3.0 0.00 0.01 0.00 83 999.7
20260904042018 48 0 0.0 0.0 0.00 0.01 0.00 82 999.9
20260904041535 48 0 0.0 0.0 0.00 0.01 0.00 82 999.9
20260904041014 48 0 0.0 0.0 0.00 0.01 0.00 82 1000.0
20260904040514 49 0 0.0 0.0 0.00 0.01 0.00 82 1000.1
20260904040041 49 0 0.0 0.0 0.00 0.01 0.00 83 1000.2
20260904035517 49 0 0.0 0.0 0.00 0.01 0.00 84 1000.2
20260904035023 50 0 0.0 4.0 0.00 0.01 0.00 85 1000.2
20260904034532 50 0 0.0 11.0 0.00 0.01 0.00 85 1000.1
20260904034016 49 0 0.0 11.0 0.00 0.01 0.00 84 1000.1
20260904033518 49 250 0.0 3.0 0.00 0.01 0.00 82 1000.0
20260904033036 50 0 0.0 0.0 0.00 0.01 0.00 82 1000.1
20260904032517 50 0 0.0 0.0 0.00 0.01 0.00 82 1000.2
20260904032015 51 0 0.0 0.0 0.00 0.01 0.00 81 1000.3
20260904031533 51 0 0.0 0.0 0.00 0.01 0.00 82 1000.3
20260904031017 52 0 0.0 0.0 0.00 0.01 0.00 82 1000.4
20260904030514 53 0 0.0 0.0 0.00 0.01 0.00 81 1000.5
20260904030038 53 0 0.0 0.0 0.00 0.01 0.00 82 1000.3
20260904025516 54 0 0.0 0.0 0.00 0.01 0.00 82 1000.3
20260904025017 54 0 0.0 0.0 0.00 0.01 0.00 83 1000.3
20260904024535 54 0 0.0 0.0 0.00 0.01 0.00 83 1000.3
20260904024017 54 0 0.0 0.0 0.00 0.01 0.00 84 1000.3
20260904023518 54 0 0.0 0.0 0.00 0.01 0.00 83 1000.5
20260904023039 54 0 0.0 0.0 0.00 0.01 0.00 83 1000.4